Tracking 35331 objects as of 16-Sep-2026
HD Live streaming from Space Station
objects crossing your sky now

SL-14 DEB


SL-14 DEB is no longer on orbit


NORAD ID: 29223
Int'l Code: 1985-108AX
Launch date: November 22, 1985
Source: Commonwealth of Independent States (former USSR) (CIS)
Launch site: PLESETSK MISSILE AND SPACE COMPLEX (PKMTR)
Decay date: 2006-07-05

Note: This is SATELLITE DEBRIS
Your satellite tracking list
Your tracking list is empty




NASA's NSSDC Master Catalog

Two Line Element Set (TLE):
1 29223U 85108AX  06185.80691949  .18318879  00000-0  11951+0 0  9997
2 29223 082.4504 258.7572 0034004 253.0875 107.4396 15.69317512  8514
Source of the keplerian elements: AFSPC